This demonstration page uses our WeatherBlox Daily Observations layout. Learn more.

Left ArrowRight Arrow

Hourly Observations for October 9, 2022

Temp ( °F °C ) Dew Point ( °F °C ) Humidity (%) Winds ( mph kmh ) Pressure ( in mb ) Visibility ( mi km ) Precip ( " mm )
12:53 am 00:53 Clear 64 17.8 43 6.1 46 46 Calm 29.96 1015 10 16 0.00 0.00
1:53 am 01:53 Clear 62 16.7 43 6.1 50 50 Calm 29.96 1015 10 16 0.00 0.00
2:53 am 02:53 Clear 60 15.6 43 6.1 53 53 Calm 29.97 1015 10 16 0.00 0.00
3:53 am 03:53 Clear 60 15.6 43 6.1 53 53 Calm 29.97 1015 10 16 0.00 0.00
4:53 am 04:53 Clear 58 14.4 42 5.6 55 55 Calm 29.98 1015 10 16 0.00 0.00
5:53 am 05:53 Clear 56 13.3 42 5.6 60 60 Calm 29.98 1015 10 16 0.00 0.00
6:53 am 06:53 Clear 56 13.3 43 6.1 62 62 Calm 30.00 1016 10 16 0.00 0.00
7:53 am 07:53 Sunny 58 14.4 42 5.6 55 55 N 3 6 30.01 1016 10 16 0.00 0.00
8:53 am 08:53 Sunny 68 20 42 5.6 39 39 Calm 30.02 1017 10 16 0.00 0.00
9:53 am 09:53 Sunny 76 24.4 40 4.4 27 27 Calm 30.01 1016 10 16 0.00 0.00
10:53 am 10:53 Sunny 83 28.3 38 3.3 20 20 N 6 9 30.01 1016 10 16 0.00 0.00
11:53 am 11:53 Sunny 87 30.6 38 3.3 18 18 Calm 29.99 1016 10 16 0.00 0.00
12:53 pm 12:53 Sunny 90 32.2 37 2.8 16 16 VRB 3 6 29.97 1015 10 16 0.00 0.00
1:53 pm 13:53 Sunny 93 33.9 35 1.7 13 13 Calm 29.94 1014 10 16 0.00 0.00
2:53 pm 14:53 Sunny 97 36.1 31 -0.6 10 10 ENE 7 11 29.91 1013 10 16 0.00 0.00
3:53 pm 15:53 Sunny 97 36.1 32 0 10 10 undefined N/A 29.90 1013 10 16 0.00 0.00
4:53 pm 16:53 Sunny 95 35 32 0 11 11 SSW 6 9 29.89 1012 10 16 0.00 0.00
5:53 pm 17:53 Sunny 94 34.4 33 0.6 12 12 SW 5 7 29.88 1012 10 16 0.00 0.00
6:53 pm 18:53 Clear 86 30 38 3.3 18 18 SW 3 6 29.89 1012 10 16 0.00 0.00
7:53 pm 19:53 Clear 79 26.1 37 2.8 22 22 Calm 29.90 1013 10 16 0.00 0.00
8:53 pm 20:53 Clear 76 24.4 37 2.8 24 24 NE 6 9 29.91 1013 10 16 0.00 0.00
9:53 pm 21:53 Clear 71 21.7 38 3.3 30 30 NE 3 6 29.93 1013 10 16 0.00 0.00
10:53 pm 22:53 Clear 68 20 39 3.9 35 35 Calm 29.94 1014 10 16 0.00 0.00
11:53 pm 23:53 Clear 65 18.3 40 4.4 40 40 Calm 29.94 1014 10 16 0.00 0.00

Powered by AerisWeather